[[{"header":{"parameterUnit":"m.s-1","parameterCategory":1,"la1":30.2991,"la2":30.254,"lo1":-89.0895,"lo2":-89.0444,"dy":0.0017,"dx":0.0017,"nx":28,"ny":28,"refTime":"2025-09-18T21:00:00:Z","depth":0,"parameterNumber":2,"parameterNumberName":"U-component_of_WINDS"},"data":[0,0,0,0,0,0,0,0,0,0,0,0,0,0,0,0,0,0,0,0,0,0,0,0,0,0,0,0,0,0,0,0,0,0,0,0,0,0,0,0,0,0,0,0,0,0,0,0,0,0,0,0,0,0,0,0,0,0,0.8687,0.8688,0,0.8781,0.8782,0.8783,0.8851,0.8851,0.8852,0.8853,0.8945,0.8947,0.8949,0,0,0,0,0,0,0,0,0,0,0,0,0,0.8563,0.8565,0.8687,0.8688,0.8689,0.878,0.8782,0.8783,0.8851,0.8851,0.8852,0.8853,0.8945,0.8947,0.8949,0,0,0,0,0,0,0,0,0,0,0,0,0,0.8633,0.8566,0.8686,0.8734,0.8739,0.878,0.8782,0.8783,0.8851,0.8852,0.8852,0.8853,0.8944,0.8947,0.895,0.895,0,0,0.8958,0.896,0,0,0,0,0,0,0,0,0.8629,0.8637,0.8726,0.8731,0.8737,0.8805,0.8772,0.8839,0.885,0.8808,0.8853,0.8854,0.8898,0.8904,0.892,0.8954,0.8958,0.8959,0.896,0.8962,0.8962,0,0,0,0,0,0,0,0.8624,0.8633,0.8724,0.8727,0.8734,0.875,0.876,0.8785,0.8847,0.8812,0.8817,0.8827,0.8901,0.8917,0.8923,0.8959,0.8959,0.8961,0.8963,0.8964,0.8998,0.8997,0,0,0,0,0,0,0.8612,0.8629,0.8721,0.8727,0.8684,0.8751,0.8763,0.8782,0.8847,0.8857,0.8827,0.883,0.8912,0.8919,0.8926,0.893,0.8962,0.8964,0.8966,0.8999,0.8998,0.8997,0,0,0,0,0,0,0.8609,0.862,0.8717,0.8679,0.8693,0.8752,0.8773,0.8783,0.88,0.8858,0.8869,0.8832,0.8913,0.8922,0.8944,0.8934,0.8966,0.8968,0.9,0.8998,0.8997,0.8938,0,0,0,0,0,0,0.8605,0.8618,0.8619,0.8679,0.8695,0.8733,0.8772,0.8785,0.8805,0.8811,0.8866,0.8876,0.8914,0.8939,0.8946,0.8939,0.8971,0.9001,0.8999,0.8998,0.8941,0.8934,0.8929,0,0,0,0,0,0.8601,0.8598,0.8619,0.863,0.8698,0.8733,0.8742,0.8787,0.8804,0.8805,0.8843,0.8874,0.8934,0.894,0.895,0.8942,0.9002,0.9,0.8998,0.8943,0.8936,0.8929,0,0,0,0,0,0,0.8535,0.8607,0.8631,0.8648,0.8684,0.8744,0.8747,0.8777,0.8808,0.8812,0.8866,0.8878,0.8893,0.892,0.8926,0.8946,0.8972,0.8972,0.8927,0.8921,0.8915,0.8907,0.8973,0,0,0,0,0,0.8522,0.8546,0.8607,0.8616,0.8633,0.8687,0.8704,0.8736,0.8774,0.879,0.8829,0.8864,0.8891,0.8908,0.8936,0.8946,0.8958,0.8945,0.894,0.8935,0.8933,0.8939,0.8934,0.8991,0.8991,0.8991,0,0,0.8496,0.8539,0.855,0.8604,0.8636,0.8657,0.8699,0.8721,0.8737,0.8793,0.8815,0.8845,0.8888,0.8904,0.8912,0.8927,0.8921,0.8932,0.8928,0.8929,0.8937,0.8931,0.8927,0.899,0.899,0.899,0,0,0.846,0.8495,0.8506,0.8538,0.8585,0.8621,0.8624,0.868,0.8702,0.8726,0.8768,0.8788,0.8834,0.8863,0.8884,0.8859,0.8889,0.8867,0.8836,0.8842,0.8837,0.8833,0.8823,0.8819,0.8866,0.8866,0.8866,0,0.8422,0.8457,0.8508,0.8527,0.8549,0.8602,0.8613,0.864,0.8694,0.8707,0.8724,0.8782,0.8815,0.8837,0.8831,0.8847,0.8851,0.886,0.8834,0.8831,0.8828,0.8819,0.8815,0.8863,0.8863,0.8863,0.8864,0,0.8407,0.8431,0.8434,0.8486,0.8509,0.8523,0.8575,0.8592,0.8622,0.8656,0.8679,0.8721,0.8758,0.8766,0.8795,0.8792,0.88,0.8824,0.8851,0.8819,0.8811,0.8808,0.8858,0.8859,0.886,0.8861,0,0,0.833,0.8411,0.8411,0.8435,0.8492,0.8511,0.8528,0.8566,0.8578,0.8614,0.8628,0.8666,0.869,0.8713,0.8746,0.8751,0.8728,0.8775,0.8777,0.8763,0.8726,0.8705,0.8701,0.8749,0.8748,0.8748,0.8721,0,0.8301,0.8336,0.8382,0.84,0.8422,0.8473,0.8488,0.8524,0.8557,0.8579,0.8615,0.864,0.867,0.8684,0.8692,0.8729,0.872,0.8732,0.8761,0.8762,0.8747,0.8697,0.8676,0.8648,0.8719,0.8719,0.8718,0,0.8272,0.8306,0.8326,0.8382,0.8393,0.8405,0.8443,0.8465,0.8507,0.853,0.8557,0.8593,0.8612,0.8638,0.8665,0.8672,0.8687,0.8707,0.8707,0.8709,0.8736,0.8696,0.8641,0.8636,0.8714,0.8715,0.8715,0,0.8212,0.8263,0.8282,0.8301,0.8366,0.8373,0.8401,0.8444,0.8463,0.8497,0.8509,0.8544,0.8562,0.8588,0.8632,0.8647,0.8654,0.8684,0.8673,0.8671,0.867,0.8669,0.8614,0.8683,0.8683,0.8683,0.8683,0,0.8173,0.8183,0.8255,0.8266,0.8279,0.8332,0.8343,0.8375,0.8413,0.843,0.8477,0.8493,0.8551,0.8573,0.8608,0.8624,0.8633,0.8651,0.866,0.8646,0.8643,0.8655,0.8657,0.8682,0.8682,0.8682,0.8682,0,0.8107,0.8156,0.8179,0.824,0.8256,0.8262,0.8313,0.8326,0.8362,0.8383,0.8391,0.8447,0.8475,0.8523,0.8565,0.8588,0.8597,0.8613,0.8583,0.8588,0.8573,0.8573,0.8522,0.8518,0.8591,0.859,0.8589,0,0.8078,0.8088,0.815,0.8165,0.8191,0.8216,0.8237,0.8289,0.8309,0.8357,0.8363,0.8396,0.8424,0.8467,0.851,0.8543,0.8559,0.8539,0.8564,0.8549,0.8556,0.8554,0.8555,0.8532,0.8531,0.853,0.8529,0,0.8022,0.8046,0.8074,0.8111,0.8134,0.8166,0.8199,0.8209,0.8269,0.8289,0.8319,0.8341,0.8384,0.8415,0.8454,0.8481,0.8514,0.8522,0.8521,0.8505,0.8486,0.8494,0.8565,0.8522,0.8523,0.8523,0.8524,0.8524,0.7972,0.7983,0.8028,0.8058,0.8089,0.8119,0.8134,0.8172,0.8198,0.8238,0.8268,0.8296,0.8337,0.8393,0.8419,0.844,0.8455,0.8454,0.8453,0.8452,0.8445,0.8485,0.8448,0.8448,0.8448,0.8449,0.8449,0,0.7916,0.7948,0.7976,0.8022,0.8045,0.8077,0.8116,0.8133,0.8157,0.8193,0.8221,0.8255,0.8286,0.8332,0.8366,0.8374,0.839,0.8381,0.838,0.8385,0.8431,0.8428,0.8368,0.8368,0.8368,0.8368,0.8368,0.8368,0.789,0.7909,0.7938,0.7972,0.8004,0.8032,0.8052,0.808,0.8109,0.8146,0.8171,0.8202,0.8243,0.828,0.8309,0.8322,0.8331,0.8317,0.8334,0.8375,0.8382,0.8389,0.8387,0.8319,0.8319,0.8287,0.8286,0.8286]},{"header":{"parameterUnit":"m.s-1","parameterCategory":1,"la1":30.2991,"la2":30.254,"lo1":-89.0895,"lo2":-89.0444,"dy":0.0017,"dx":0.0017,"nx":28,"ny":28,"refTime":"2025-09-18T21:00:00:Z","depth":0,"parameterNumber":3,"parameterNumberName":"V-component_of_WINDS"},"data":[0,0,0,0,0,0,0,0,0,0,0,0,0,0,0,0,0,0,0,0,0,0,0,0,0,0,0,0,0,0,0,0,0,0,0,0,0,0,0,0,0,0,0,0,0,0,0,0,0,0,0,0,0,0,0,0,0,0,2.025,2.025,0,2.0252,2.0252,2.0252,2.023,2.0229,2.0229,2.0228,2.0229,2.023,2.023,0,0,0,0,0,0,0,0,0,0,0,0,0,2.0228,2.0229,2.025,2.025,2.0251,2.0252,2.0252,2.0252,2.023,2.0229,2.0229,2.0228,2.0229,2.023,2.023,0,0,0,0,0,0,0,0,0,0,0,0,0,2.0235,2.0229,2.025,2.024,2.0239,2.0252,2.0252,2.0252,2.023,2.0229,2.0228,2.0228,2.0229,2.023,2.0231,2.0254,0,0,2.0233,2.0234,0,0,0,0,0,0,0,0,2.0234,2.0235,2.0241,2.0241,2.0239,2.024,2.0244,2.0253,2.023,2.0233,2.0228,2.0227,2.0233,2.0234,2.0236,2.0254,2.0254,2.0233,2.0234,2.0234,2.0234,0,0,0,0,0,0,0,2.0234,2.0235,2.0251,2.0241,2.024,2.0235,2.0235,2.0246,2.0238,2.0233,2.0232,2.0232,2.0233,2.0235,2.0236,2.0254,2.0233,2.0234,2.0235,2.0235,2.029,2.0291,0,0,0,0,0,0,2.0235,2.0235,2.0251,2.0251,2.0235,2.0236,2.0236,2.0241,2.0238,2.0237,2.0233,2.0231,2.0234,2.0235,2.0236,2.0262,2.0234,2.0235,2.0236,2.0289,2.029,2.0291,0,0,0,0,0,0,2.0235,2.0237,2.0251,2.0243,2.0244,2.0237,2.0243,2.0241,2.0244,2.0238,2.0237,2.0237,2.0234,2.0235,2.0249,2.0262,2.0235,2.0236,2.0288,2.0289,2.0291,2.0315,0,0,0,0,0,0,2.0234,2.0237,2.0245,2.0243,2.0245,2.0264,2.0244,2.0242,2.0245,2.0243,2.0241,2.024,2.0233,2.0248,2.025,2.0262,2.0237,2.0287,2.0289,2.029,2.0313,2.0317,2.032,0,0,0,0,0,2.0233,2.0252,2.0246,2.0248,2.0256,2.0265,2.0266,2.0257,2.0246,2.0255,2.0251,2.024,2.026,2.025,2.0252,2.0265,2.0286,2.0288,2.029,2.0311,2.0316,2.032,0,0,0,0,0,0,2.0256,2.0252,2.0245,2.0264,2.0265,2.0262,2.0272,2.0263,2.0268,2.0265,2.0254,2.0254,2.027,2.0269,2.0258,2.0287,2.0271,2.0274,2.0287,2.0291,2.0295,2.0294,2.0238,0,0,0,0,0,2.0264,2.0272,2.0268,2.0285,2.0286,2.0279,2.0283,2.0276,2.0277,2.0278,2.0275,2.0276,2.0283,2.0287,2.0293,2.0313,2.0312,2.0323,2.0327,2.033,2.0332,2.0341,2.0346,2.0298,2.0298,2.0298,0,0,2.0279,2.0278,2.0283,2.029,2.029,2.0298,2.028,2.029,2.0296,2.0279,2.0292,2.0291,2.0291,2.0309,2.0316,2.0308,2.0345,2.0333,2.0335,2.0335,2.0344,2.0349,2.0353,2.0299,2.0299,2.0299,0,0,2.031,2.0311,2.0324,2.0325,2.0326,2.0321,2.0324,2.0322,2.032,2.0334,2.0321,2.0328,2.034,2.0341,2.0342,2.0374,2.0364,2.0377,2.0396,2.0405,2.0409,2.0412,2.0422,2.0426,2.0379,2.0379,2.0379,0,2.0329,2.0341,2.0333,2.0343,2.0346,2.0332,2.0345,2.0346,2.0349,2.0351,2.0342,2.0356,2.0355,2.0372,2.038,2.0382,2.0385,2.0376,2.0409,2.0412,2.0415,2.0425,2.0429,2.038,2.038,2.038,2.038,0,2.0364,2.0373,2.0384,2.0386,2.039,2.0402,2.0395,2.04,2.0393,2.0389,2.0403,2.0402,2.0407,2.041,2.0404,2.0426,2.0421,2.0411,2.0395,2.0421,2.043,2.0434,2.0382,2.0382,2.0382,2.0381,0,0,2.0409,2.0406,2.041,2.0411,2.0411,2.0417,2.0429,2.0433,2.0437,2.044,2.0448,2.0459,2.0449,2.0451,2.0445,2.0454,2.0477,2.0442,2.0442,2.0448,2.05,2.0507,2.0511,2.0471,2.0472,2.0472,2.05,0,2.0438,2.0457,2.045,2.0469,2.0476,2.0463,2.0473,2.0473,2.047,2.0476,2.0473,2.048,2.0467,2.0468,2.0476,2.0473,2.0487,2.0471,2.0478,2.0478,2.0477,2.0516,2.0523,2.0549,2.0503,2.0504,2.0504,0,2.0475,2.0478,2.0498,2.0496,2.0499,2.0508,2.0511,2.0517,2.0518,2.0515,2.0517,2.0509,2.0519,2.0505,2.0518,2.0507,2.051,2.0509,2.051,2.0509,2.0492,2.0515,2.0557,2.056,2.051,2.0509,2.0509,0,2.0504,2.0514,2.0527,2.0528,2.0526,2.0532,2.0532,2.0532,2.0535,2.0538,2.054,2.0544,2.0546,2.055,2.0543,2.0533,2.0557,2.0542,2.0554,2.0555,2.0559,2.0558,2.0601,2.0563,2.0563,2.0563,2.0563,0,2.0537,2.0549,2.054,2.0548,2.0561,2.0552,2.0566,2.0564,2.0564,2.057,2.056,2.0567,2.0558,2.0563,2.0558,2.057,2.0571,2.0569,2.0567,2.0569,2.0569,2.0569,2.0567,2.0564,2.0564,2.0564,2.0564,0,2.0571,2.0565,2.0578,2.0575,2.0575,2.0585,2.0582,2.0589,2.0585,2.0594,2.0596,2.059,2.0596,2.059,2.0596,2.0593,2.0608,2.0604,2.0607,2.0606,2.0618,2.0616,2.066,2.0665,2.0626,2.0627,2.0627,0,2.0591,2.06,2.0598,2.0602,2.0602,2.0609,2.0612,2.0604,2.0607,2.0609,2.0615,2.0621,2.0624,2.0635,2.0631,2.0636,2.0631,2.0646,2.0631,2.0633,2.0629,2.0628,2.0629,2.0649,2.0649,2.065,2.065,0,2.0628,2.0624,2.0629,2.0633,2.0637,2.064,2.0641,2.0645,2.0637,2.0642,2.0648,2.0651,2.0657,2.0662,2.0665,2.0664,2.0655,2.0655,2.0658,2.0659,2.066,2.0658,2.0614,2.0653,2.0653,2.0653,2.0653,2.0652,2.0654,2.0661,2.0661,2.0667,2.0667,2.0669,2.0675,2.0672,2.0677,2.0681,2.0677,2.0684,2.0684,2.0687,2.0688,2.0693,2.0687,2.0691,2.0692,2.0693,2.0694,2.066,2.0694,2.0694,2.0694,2.0694,2.0694,0,2.0689,2.0688,2.0693,2.0696,2.07,2.0692,2.0694,2.0698,2.0704,2.0705,2.0709,2.0716,2.0721,2.0718,2.0722,2.0727,2.0723,2.0728,2.0727,2.0726,2.07,2.0697,2.0731,2.0731,2.0731,2.0731,2.0731,2.0731,2.0707,2.0718,2.0715,2.0726,2.0725,2.0732,2.0734,2.0735,2.0736,2.0744,2.0748,2.0746,2.0745,2.0749,2.0753,2.0752,2.0753,2.076,2.0757,2.0732,2.0728,2.0725,2.0721,2.076,2.076,2.0783,2.0783,2.0783]}]]